Location: *
(51.2167°N, 10.0667°E)
Time: 15:13:15
(UTC+00:00)

Cosmos 1707 Rocket - Pass Details

Date: 12 December 2019
Orbit: 604 x 633 km, 82.5° (Epoch: 25 January)

Event Time Altitude Azimuth Distance (km) Brightness Sun altitude
Rises 15:59:55 0° 189° (S) 2,913 7.6 -7.1°
Reaches altitude 10° 16:02:08 10° 190° (S) 2,012 6.8 -7.4°
Maximum altitude 16:06:37 87° 282° (WNW) 642 3.7 -8.1°
Drops below altitude 10° 16:11:08 10° 10° (N) 2,028 5.9 -8.7°
Sets 16:13:23 0° 11° (N) 2,940 6.7 -9.0°
